Location: Shenandoah County Park
(38.9356°N, 78.4524°W)
Time: 10:38:39
(UTC-04:00)

Vanguard 1 Rocket - Pass Details

Date: 15 February 2023
Orbit: 652 x 4223 km, 34.3° (Epoch: 24 March)

Event Time Altitude Azimuth Distance (km) Brightness Sun altitude
Rises 10:21:12 0° 249° (WSW) 3,289 10.1 30.6°
Reaches altitude 10° 10:23:13 10° 245° (WSW) 2,543 9.7 30.8°
Maximum altitude 10:29:01 59° 167° (SSE) 1,405 9.6 31.5°
Drops below altitude 10° 10:39:47 10° 91° (E) 4,576 11.5 32.6°
Sets 10:44:43 0° 89° (E) 6,181 12.0 33.1°
